When you browse on this site, cookies collect data to enhance your experience and personalize the content and advertising you see.
Visit our Privacy Policy to learn more. By continuing to use the site, you agree to this use of cookies and data.
  • In Österreich
  • Länderverzeichnis
  • Für 7 Tage
  • Wassertemperatur
  • Wetterkarte
  • News
  • Widgets
  • user-avatar
    Anmelden

    Stündliche Wetter Machetá

    Heute, 23 September, Montag

    Zeit Temperatur Niederschläge Wind Luftdruck Luftfeuchtigkeit
    00:00 +12°C° 0 mm 0 m/S 583 mmHg 97%
    01:00 +12°C° 0 mm 1 m/S 582 mmHg 97%
    02:00 +12°C° 0 mm 1 m/S 582 mmHg 96%
    03:00 +12°C° 0 mm 1 m/S 582 mmHg 96%
    04:00 +11°C° 0 mm 1 m/S 582 mmHg 95%
    05:00 +12°C° 0 mm 1 m/S 583 mmHg 92%
    06:00 +13°C° 0 mm 1 m/S 583 mmHg 90%
    07:00 +13°C° 0 mm 0 m/S 584 mmHg 87%
    08:00 +16°C° 0 mm 1 m/S 585 mmHg 76%
    09:00 +20°C° 0 mm 1 m/S 586 mmHg 65%
    10:00 +21°C° 0 mm 2 m/S 588 mmHg 54%
    11:00 +23°C° 0.1 mm 2 m/S 587 mmHg 55%
    12:00 +23°C° 0.1 mm 2 m/S 586 mmHg 57%
    13:00 +22°C° 0.1 mm 3 m/S 585 mmHg 58%
    14:00 +21°C° 0.5 mm 2 m/S 585 mmHg 66%
    15:00 +20°C° 0.5 mm 2 m/S 584 mmHg 75%
    16:00 +19°C° 0.5 mm 2 m/S 583 mmHg 83%
    17:00 +17°C° 0.4 mm 2 m/S 583 mmHg 88%
    18:00 +16°C° 0.4 mm 1 m/S 582 mmHg 93%
    19:00 +13°C° 0.4 mm 0 m/S 582 mmHg 98%
    20:00 +13°C° 0 mm 0 m/S 582 mmHg 97%
    21:00 +12°C° 0 mm 0 m/S 583 mmHg 96%
    22:00 +12°C° 0 mm 0 m/S 583 mmHg 96%
    23:00 +12°C° 0 mm 1 m/S 582 mmHg 95%

    Morgen, 24 September, Dienstag

    Zeit Temperatur Niederschläge Wind Luftdruck Luftfeuchtigkeit
    00:00 +12°C° 0 mm 1 m/S 582 mmHg 94%
    01:00 +11°C° 0 mm 1 m/S 581 mmHg 93%
    02:00 +11°C° 0 mm 1 m/S 581 mmHg 92%
    03:00 +11°C° 0 mm 1 m/S 581 mmHg 90%
    04:00 +11°C° 0 mm 1 m/S 581 mmHg 89%
    05:00 +11°C° 0 mm 0 m/S 582 mmHg 87%
    06:00 +12°C° 0 mm 0 m/S 583 mmHg 85%
    07:00 +13°C° 0 mm 0 m/S 584 mmHg 82%
    08:00 +16°C° 0 mm 1 m/S 585 mmHg 73%
    09:00 +20°C° 0 mm 1 m/S 587 mmHg 64%
    10:00 +22°C° 0 mm 1 m/S 588 mmHg 55%
    11:00 +21°C° 0.1 mm 2 m/S 587 mmHg 56%
    12:00 +21°C° 0.1 mm 2 m/S 587 mmHg 57%
    13:00 +23°C° 0.1 mm 2 m/S 586 mmHg 57%
    14:00 +20°C° 0.3 mm 2 m/S 585 mmHg 64%
    15:00 +20°C° 0.3 mm 1 m/S 584 mmHg 72%
    16:00 +19°C° 0.3 mm 1 m/S 583 mmHg 79%
    17:00 +18°C° 0.6 mm 1 m/S 583 mmHg 84%
    18:00 +15°C° 0.6 mm 0 m/S 583 mmHg 90%
    19:00 +14°C° 0.6 mm 0 m/S 583 mmHg 96%
    20:00 +13°C° 0.1 mm 0 m/S 583 mmHg 96%
    21:00 +13°C° 0.1 mm 0 m/S 583 mmHg 96%
    22:00 +13°C° 0.1 mm 0 m/S 584 mmHg 96%
    23:00 +13°C° 0 mm 0 m/S 583 mmHg 96%

    übermorgen, 25 September, Mittwoch

    Zeit Temperatur Niederschläge Wind Luftdruck Luftfeuchtigkeit
    00:00 +13°C° 0 mm 0 m/S 583 mmHg 95%
    01:00 +13°C° 0 mm 0 m/S 583 mmHg 95%
    02:00 +13°C° 0 mm 0 m/S 583 mmHg 94%
    03:00 +13°C° 0 mm 0 m/S 583 mmHg 94%
    04:00 +13°C° 0 mm 0 m/S 583 mmHg 93%
    05:00 +13°C° 0 mm 0 m/S 583 mmHg 92%
    06:00 +14°C° 0 mm 0 m/S 584 mmHg 90%
    07:00 +14°C° 0 mm 0 m/S 584 mmHg 89%
    08:00 +16°C° 0.2 mm 1 m/S 585 mmHg 84%
    09:00 +19°C° 0.2 mm 1 m/S 586 mmHg 80%
    10:00 +19°C° 0.2 mm 2 m/S 587 mmHg 75%
    11:00 +19°C° 1 mm 2 m/S 586 mmHg 77%
    12:00 +19°C° 1 mm 2 m/S 585 mmHg 79%
    13:00 +20°C° 1 mm 2 m/S 584 mmHg 81%
    14:00 +19°C° 0.8 mm 2 m/S 584 mmHg 82%
    15:00 +19°C° 0.8 mm 2 m/S 583 mmHg 83%
    16:00 +19°C° 0.8 mm 2 m/S 583 mmHg 83%
    17:00 +18°C° 0.4 mm 1 m/S 583 mmHg 88%
    18:00 +16°C° 0.4 mm 1 m/S 582 mmHg 93%
    19:00 +13°C° 0.4 mm 0 m/S 582 mmHg 98%
    20:00 +13°C° 0 mm 0 m/S 583 mmHg 98%
    21:00 +13°C° 0 mm 0 m/S 583 mmHg 97%
    22:00 +13°C° 0 mm 0 m/S 584 mmHg 97%
    23:00 +13°C° 0 mm 0 m/S 583 mmHg 96%

    26 September, Donnerstag

    Zeit Temperatur Niederschläge Wind Luftdruck Luftfeuchtigkeit
    00:00 +13°C° 0 mm 0 m/S 583 mmHg 96%
    01:00 +13°C° 0 mm 0 m/S 583 mmHg 95%
    02:00 +12°C° 0 mm 0 m/S 582 mmHg 95%
    03:00 +12°C° 0 mm 0 m/S 582 mmHg 95%
    04:00 +12°C° 0 mm 0 m/S 582 mmHg 94%
    05:00 +12°C° 0 mm 0 m/S 583 mmHg 93%
    06:00 +13°C° 0 mm 0 m/S 583 mmHg 92%
    07:00 +13°C° 0 mm 0 m/S 584 mmHg 91%
    08:00 +16°C° 0.1 mm 1 m/S 585 mmHg 86%
    09:00 +17°C° 0.1 mm 2 m/S 585 mmHg 82%
    10:00 +18°C° 0.1 mm 2 m/S 586 mmHg 77%
    11:00 +18°C° 0.4 mm 2 m/S 585 mmHg 77%
    12:00 +19°C° 0.4 mm 2 m/S 585 mmHg 77%
    13:00 +19°C° 0.4 mm 2 m/S 584 mmHg 77%
    14:00 +19°C° 0.4 mm 2 m/S 583 mmHg 78%
    15:00 +19°C° 0.4 mm 2 m/S 583 mmHg 78%
    16:00 +18°C° 0.4 mm 2 m/S 582 mmHg 79%
    17:00 +17°C° 0.2 mm 2 m/S 582 mmHg 85%
    18:00 +15°C° 0.2 mm 1 m/S 582 mmHg 91%
    19:00 +12°C° 0.2 mm 0 m/S 581 mmHg 97%
    20:00 +12°C° 0 mm 0 m/S 582 mmHg 97%
    21:00 +12°C° 0 mm 0 m/S 582 mmHg 97%
    22:00 +12°C° 0 mm 0 m/S 582 mmHg 97%
    23:00 +12°C° 0 mm 0 m/S 582 mmHg 96%

    27 September, Freitag

    Zeit Temperatur Niederschläge Wind Luftdruck Luftfeuchtigkeit
    00:00 +12°C° 0 mm 0 m/S 582 mmHg 95%
    01:00 +13°C° 0 mm 1 m/S 582 mmHg 94%
    02:00 +13°C° 0 mm 1 m/S 582 mmHg 94%
    03:00 +12°C° 0 mm 1 m/S 581 mmHg 94%
    04:00 +12°C° 0 mm 1 m/S 581 mmHg 94%
    05:00 +13°C° 0 mm 1 m/S 582 mmHg 92%
    06:00 +13°C° 0 mm 0 m/S 583 mmHg 89%
    07:00 +14°C° 0 mm 0 m/S 584 mmHg 87%
    08:00 +18°C° 0.1 mm 1 m/S 585 mmHg 78%
    09:00 +19°C° 0.1 mm 2 m/S 586 mmHg 70%
    10:00 +21°C° 0.1 mm 2 m/S 587 mmHg 62%
    11:00 +21°C° 0.5 mm 3 m/S 586 mmHg 63%
    12:00 +21°C° 0.5 mm 3 m/S 586 mmHg 64%
    13:00 +21°C° 0.5 mm 3 m/S 585 mmHg 66%
    14:00 +21°C° 0.5 mm 3 m/S 584 mmHg 70%
    15:00 +20°C° 0.5 mm 3 m/S 584 mmHg 74%
    16:00 +19°C° 0.5 mm 2 m/S 583 mmHg 79%
    17:00 +18°C° 0.2 mm 1 m/S 582 mmHg 85%
    18:00 +15°C° 0.2 mm 1 m/S 582 mmHg 91%
    19:00 +13°C° 0.2 mm 0 m/S 582 mmHg 98%
    20:00 +12°C° 0 mm 0 m/S 582 mmHg 97%
    21:00 +12°C° 0 mm 0 m/S 582 mmHg 97%
    22:00 +13°C° 0 mm 1 m/S 582 mmHg 96%
    23:00 +12°C° 0 mm 1 m/S 582 mmHg 95%

    28 September, Samstag

    Zeit Temperatur Niederschläge Wind Luftdruck Luftfeuchtigkeit
    00:00 +12°C° 0 mm 1 m/S 582 mmHg 95%
    01:00 +12°C° 0 mm 1 m/S 581 mmHg 94%
    02:00 +12°C° 0 mm 1 m/S 581 mmHg 93%
    03:00 +12°C° 0 mm 1 m/S 581 mmHg 93%
    04:00 +11°C° 0 mm 1 m/S 580 mmHg 92%
    05:00 +12°C° 0 mm 1 m/S 581 mmHg 89%
    06:00 +14°C° 0 mm 1 m/S 583 mmHg 87%
    07:00 +14°C° 0 mm 0 m/S 584 mmHg 84%
    08:00 +18°C° 0 mm 1 m/S 585 mmHg 72%
    09:00 +21°C° 0 mm 1 m/S 586 mmHg 60%
    10:00 +24°C° 0 mm 2 m/S 587 mmHg 48%
    11:00 +24°C° 0.1 mm 2 m/S 587 mmHg 48%
    12:00 +25°C° 0.1 mm 2 m/S 586 mmHg 48%
    13:00 +25°C° 0.1 mm 2 m/S 586 mmHg 47%
    14:00 +24°C° 0.8 mm 2 m/S 584 mmHg 59%
    15:00 +21°C° 0.8 mm 2 m/S 583 mmHg 70%
    16:00 +19°C° 0.8 mm 2 m/S 582 mmHg 81%
    17:00 +19°C° 0.7 mm 1 m/S 582 mmHg 87%
    18:00 +16°C° 0.7 mm 1 m/S 582 mmHg 92%
    19:00 +14°C° 0.7 mm 0 m/S 581 mmHg 98%
    20:00 +14°C° 0.1 mm 0 m/S 582 mmHg 97%
    21:00 +13°C° 0.1 mm 0 m/S 582 mmHg 97%
    22:00 +14°C° 0.1 mm 1 m/S 582 mmHg 96%
    23:00 +14°C° 0 mm 1 m/S 582 mmHg 96%
    Mehr zeigen